Theta_e
319 319 327 327 327 328 330 330 330 329 329 329 327 326 325 324 323 315 314 321 322 326 321 308 308 308 307 306 304 300 293 289 291 292 293 295 295 296 299 300 304 308 314 317 324
320 321 323 327 326 327 329 329 329 329 328 327 326 325 325 324 311 306 320 332 333 328 308 304 303 304 301 302 301 295 292 293 295 295 296 296 296 297 299 301 304 309 315 321 327
320 320 320 326 325 327 328 328 328 327 327 326 326 325 324 320 301 302 323 330 332 326 310 307 305 303 300 301 299 297 293 294 295 297 298 297 295 296 298 295 304 309 316 319 324
320 320 320 325 325 326 327 327 327 327 326 325 325 324 323 310 292 303 325 328 329 316 309 307 303 299 295 296 300 293 297 295 297 298 298 296 296 294 296 298 300 315 322 320 321
320 319 320 318 324 325 326 327 326 326 325 325 324 323 311 300 301 309 325 327 321 308 303 306 300 300 296 295 297 295 295 296 295 297 296 296 294 294 295 295 309 319 320 320 320
319 319 319 318 323 324 325 326 326 325 325 325 324 321 305 292 307 314 318 315 310 305 302 302 301 303 301 299 295 296 295 295 295 295 295 294 292 295 296 299 313 318 318 319 319
319 319 318 319 323 323 324 324 326 325 325 325 324 312 301 297 309 314 313 308 308 303 300 303 304 300 303 299 303 294 291 293 293 294 293 293 291 293 294 302 312 316 317 317 319
319 318 318 319 322 322 323 323 324 324 324 324 323 308 297 307 310 311 307 304 306 303 302 304 304 300 297 297 295 292 290 288 292 293 292 293 290 293 294 301 307 311 312 315 317
318 318 318 318 321 321 322 322 323 324 324 323 310 302 294 312 305 307 304 303 304 301 301 303 300 295 293 290 287 286 283 285 289 293 291 290 288 291 293 295 299 304 309 312 314
318 318 318 318 320 320 321 322 322 322 318 312 309 297 298 298 304 305 303 303 300 299 297 295 292 288 286 285 283 283 283 284 287 291 289 287 289 290 290 293 294 297 298 299 303
318 318 319 320 320 320 319 316 307 304 304 296 295 293 296 302 305 302 304 300 298 294 288 290 287 284 285 288 289 288 287 285 288 290 289 289 287 290 290 289 291 291 291 292 294
317 318 319 319 320 320 317 306 303 303 295 300 299 299 299 302 297 300 302 295 293 288 290 287 284 289 291 289 287 286 284 283 287 290 289 286 288 290 289 291 291 292 291 292 292
316 317 318 319 319 317 311 306 307 306 293 296 298 298 299 300 295 296 299 295 291 287 287 285 289 291 290 287 286 283 283 283 286 287 287 285 285 286 290 290 292 292 294 294 294
313 317 318 319 313 313 307 307 307 301 288 289 293 297 300 299 293 301 300 296 291 288 288 287 291 290 287 286 287 283 287 286 286 284 280 282 278 282 285 288 289 293 292 295 293
312 317 318 318 312 307 307 307 306 298 276 291 293 302 300 294 295 295 299 295 288 288 287 285 286 286 286 286 288 286 288 287 285 282 279 279 278 281 282 285 288 292 292 293 292
315 317 317 315 313 311 307 305 301 285 275 287 293 293 293 293 294 295 296 296 294 289 287 287 289 289 289 289 289 288 286 285 282 280 277 280 280 280 283 287 286 288 289 290 291
316 317 316 315 306 309 306 300 284 277 289 284 287 291 291 288 289 293 291 288 286 281 281 284 285 287 289 287 287 285 282 276 276 275 276 278 277 284 286 286 287 289 289 288 290
316 316 315 313 311 308 302 290 278 283 284 289 289 290 286 290 288 289 289 287 288 285 281 281 279 286 288 288 285 283 284 277 272 273 276 279 277 283 287 288 288 287 288 289 291
316 314 311 311 309 307 295 282 281 285 287 287 288 285 284 289 287 287 288 288 288 286 282 281 280 286 288 289 290 285 282 284 278 268 274 277 280 286 286 287 287 288 289 290 292
311 309 306 310 310 302 290 284 284 290 290 290 282 286 282 285 284 285 286 290 288 289 290 286 281 286 288 289 289 287 289 282 280 270 270 276 276 281 283 286 287 289 289 290 291
309 300 305 310 307 296 284 284 287 291 293 288 284 284 285 285 284 284 285 287 291 288 288 287 285 283 286 285 284 284 283 282 282 280 274 271 277 283 287 287 288 288 289 290 291
296 286 301 308 291 292 286 287 292 291 293 290 290 287 286 287 284 285 283 286 293 290 287 288 286 281 282 285 288 286 286 286 282 277 277 277 278 283 285 286 287 288 288 290 291
285 286 297 303 285 286 290 288 291 290 291 289 288 289 290 288 284 287 287 291 292 291 288 289 283 278 281 284 285 283 283 284 283 281 278 275 279 287 286 287 287 287 287 290 291
288 284 286 295 289 290 287 286 285 293 291 292 290 291 289 288 289 286 288 291 292 292 295 294 285 283 280 282 285 282 284 285 285 280 280 280 280 283 284 286 288 288 286 288 290
286 283 286 285 287 291 290 288 285 287 291 293 290 290 288 285 285 285 289 290 290 294 292 290 281 282 282 284 286 285 284 285 284 286 281 284 282 284 285 286 287 287 288 289 290
285 284 287 289 290 290 290 286 286 288 289 288 287 290 290 286 287 284 288 287 288 289 290 288 277 282 281 283 284 283 284 286 286 286 286 284 283 287 286 286 286 290 289 289 289
291 292 290 289 288 288 287 287 287 290 291 292 291 289 289 290 293 292 294 293 292 289 288 285 280 276 278 281 283 279 284 284 286 287 287 282 288 288 285 286 288 289 289 290 291
Wind_Speed
17 22 25 26 24 22 23 22 20 18 17 13 14 11 10 8 7 2 7 6 6 7 4 1 1 3 3 2 2 3 5 3 5 6 5 5 4 3 1 6 1 2 7 4 16
21 23 25 27 26 25 24 24 23 21 19 18 14 13 11 10 0 7 6 13 10 8 4 3 1 2 2 3 2 4 4 8 6 5 6 7 6 8 5 4 0 0 2 12 16
23 25 18 28 27 26 25 24 24 22 21 19 17 13 13 8 2 9 20 14 11 7 6 3 2 3 2 2 2 4 4 3 4 4 5 8 6 4 9 3 7 9 9 15 15
26 24 23 26 29 27 27 24 22 22 21 19 17 14 11 3 9 0 12 16 13 9 7 5 5 4 4 5 5 2 4 3 5 4 6 9 7 5 5 8 5 11 19 15 14
25 25 27 22 29 28 27 26 22 21 21 20 20 17 7 3 8 1 9 10 8 9 9 7 3 3 2 3 3 2 3 2 2 4 1 7 4 5 7 0 6 11 9 14 15
26 26 25 23 30 28 26 27 23 20 20 19 21 19 5 5 3 4 9 11 8 7 6 8 8 8 4 4 5 3 1 4 3 2 3 1 1 5 5 5 7 13 12 11 14
26 27 26 25 29 28 26 28 24 21 21 22 22 8 6 17 4 6 8 7 9 8 8 5 5 7 12 4 14 2 3 4 2 0 2 2 2 8 2 6 9 10 10 8 8
24 28 28 23 28 30 26 26 23 22 21 20 19 1 6 3 7 6 5 5 6 4 4 6 3 5 6 4 4 5 3 3 2 2 2 5 10 4 5 9 11 9 7 8 11
22 29 29 22 31 29 26 25 22 24 19 18 6 2 5 6 6 5 4 9 7 3 2 4 3 3 4 7 3 4 4 4 3 3 2 4 7 1 3 6 8 9 9 9 7
23 29 27 26 31 29 27 25 22 26 16 6 2 3 5 7 5 6 2 8 6 7 4 4 5 4 4 3 9 5 4 3 6 6 1 2 9 5 1 8 10 7 7 7 8
24 29 24 31 31 31 27 16 13 9 19 14 16 2 9 5 5 4 6 6 5 6 6 2 5 6 6 6 7 6 7 6 3 2 3 7 7 9 5 4 9 9 8 9 12
22 28 27 29 32 36 23 14 12 6 19 2 11 1 5 5 7 7 10 8 7 6 6 5 7 9 6 5 4 4 5 4 1 0 4 1 11 10 4 8 9 10 10 11 8
23 29 28 32 34 29 26 18 8 19 10 2 9 3 7 5 5 11 12 5 8 7 6 8 7 9 6 4 6 4 6 5 5 2 1 4 8 5 7 5 5 8 10 9 13
21 32 33 35 26 23 22 20 15 2 6 3 11 6 4 7 2 5 8 10 5 11 7 5 4 11 6 6 6 5 5 4 5 5 4 1 7 6 5 10 6 15 13 16 11
25 35 37 35 19 26 27 22 16 5 11 14 6 1 6 9 12 7 2 5 11 8 9 8 9 7 5 7 8 9 5 7 4 3 2 1 1 9 2 8 11 16 13 12 9
33 38 41 26 15 19 17 18 7 5 6 8 13 11 13 6 3 8 6 4 7 6 4 6 1 7 12 4 9 9 7 7 5 3 3 7 6 7 6 11 4 5 8 8 8
37 40 38 16 19 23 21 16 9 7 7 8 15 16 20 6 6 22 17 9 10 9 6 3 2 1 5 7 3 3 7 2 2 2 6 2 2 10 8 8 7 8 6 5 8
38 41 32 10 25 23 17 15 13 13 12 3 13 19 10 11 3 7 17 11 6 8 7 10 6 8 5 6 9 5 11 8 7 5 4 2 9 10 7 8 9 7 3 4 6
37 23 16 17 25 17 22 20 18 26 12 14 14 24 5 9 9 9 18 24 9 8 11 8 4 2 1 4 10 6 6 7 9 3 3 6 7 13 5 10 5 6 5 8 8
20 19 11 30 25 19 22 16 7 14 14 22 10 12 20 24 8 13 21 19 13 7 3 7 6 1 2 4 2 8 11 4 2 4 4 6 6 7 4 8 6 8 10 8 6
14 11 15 25 17 17 24 9 7 9 22 11 7 10 10 18 8 10 18 3 12 7 3 6 6 2 2 7 10 5 4 4 6 5 6 1 8 10 13 7 11 11 7 8 8
5 7 6 19 16 16 21 8 6 20 6 6 7 7 12 17 5 10 12 5 16 10 8 1 6 5 5 2 2 0 7 7 6 7 2 3 11 3 8 6 7 7 8 6 6
5 3 4 19 16 19 15 5 5 16 17 7 6 4 7 17 8 6 8 7 12 17 13 8 0 5 4 3 2 4 2 4 6 4 8 5 6 4 5 5 3 6 6 7 7
3 7 2 13 2 24 25 13 7 10 6 6 10 9 11 10 2 10 6 4 11 10 9 8 3 8 12 7 11 6 8 6 6 2 6 17 3 1 3 5 3 2 2 6 7
3 3 1 14 9 24 17 13 7 8 3 8 5 16 12 7 5 6 6 4 2 7 6 7 7 4 0 5 8 6 8 12 15 29 11 20 16 10 7 7 7 4 4 6 9
1 5 2 12 7 24 18 22 14 5 9 12 12 20 15 11 12 9 9 6 13 2 14 2 2 5 1 2 3 5 12 21 28 15 26 11 23 7 8 2 2 7 7 7 8
1 1 5 9 11 19 21 25 17 8 8 8 15 10 10 9 14 9 11 7 12 14 17 11 7 4 8 1 7 7 24 17 16 19 20 21 21 8 6 9 12 11 9 11 11
Wind_Direction
229 249 225 202 197 192 187 185 179 173 179 167 166 162 167 161 142 149 227 219 193 142 117 108 26 352 47 12 101 126 75 181 207 157 226 171 141 167 77 116 74 157 158 195 136
224 235 246 203 199 191 190 186 177 173 165 170 172 168 152 147 54 244 233 206 182 141 97 96 332 47 60 289 6 96 132 212 206 193 202 180 161 162 130 126 80 113 22 127 139
219 235 253 204 197 192 190 188 178 170 166 166 164 162 155 144 8 245 186 200 174 168 109 165 62 161 185 124 247 146 196 204 257 230 184 159 154 169 125 230 203 189 156 145 153
214 227 232 218 194 195 189 185 179 169 167 164 151 146 139 194 195 132 185 174 175 151 136 145 127 146 194 180 189 194 241 214 304 320 157 168 129 151 179 213 189 173 164 153 168
206 216 227 247 194 191 188 182 179 169 165 160 153 134 141 206 250 191 146 164 126 143 162 146 121 89 229 319 137 165 300 294 334 28 94 125 167 191 218 330 121 128 155 173 178
203 215 225 240 192 187 187 183 167 170 163 155 150 147 142 203 220 151 133 137 148 126 148 149 176 137 31 319 317 207 283 294 338 67 78 102 169 150 227 112 136 155 176 182 189
204 212 221 215 194 184 184 187 165 161 160 160 158 169 144 207 140 126 117 159 155 148 156 194 158 165 146 145 260 104 138 317 280 327 83 108 328 235 163 130 163 183 188 192 202
216 210 216 208 200 179 178 182 159 157 159 157 154 218 213 248 126 115 114 81 119 127 122 168 144 143 166 174 66 147 84 187 301 176 68 110 246 275 164 148 186 198 205 209 210
228 209 210 203 190 173 169 170 158 144 144 141 130 172 242 123 142 168 134 140 122 103 53 114 132 152 75 123 103 23 181 176 288 261 119 132 253 311 157 188 202 213 213 214 227
225 204 206 210 170 162 161 147 147 126 127 123 110 87 199 200 148 137 120 127 132 115 77 96 61 111 48 130 196 148 130 236 195 214 146 178 255 260 222 193 216 220 230 226 234
224 195 202 177 165 158 138 140 146 133 165 182 185 198 136 151 114 138 138 96 89 90 147 145 124 186 180 177 177 173 172 196 237 187 147 219 252 261 228 213 236 231 223 236 236
219 184 187 163 165 152 151 175 175 150 168 22 177 310 146 172 126 175 137 128 130 149 118 74 198 210 174 133 130 150 161 193 294 274 154 238 261 251 218 232 208 215 226 227 239
230 183 174 163 168 152 170 167 156 122 147 175 174 192 157 129 131 176 149 117 141 138 165 161 203 141 160 165 159 171 175 186 203 126 17 354 290 247 246 236 234 230 226 229 224
253 181 174 167 165 162 173 153 150 118 123 169 162 236 160 134 151 158 164 136 146 172 126 172 191 157 153 192 141 202 204 145 136 120 211 108 277 269 247 252 218 239 229 227 215
239 179 172 171 154 178 159 148 142 56 175 155 162 59 148 167 136 221 173 61 150 157 134 211 155 139 162 185 155 221 136 142 116 108 110 250 183 266 259 269 235 233 238 230 216
200 176 166 173 156 158 148 130 90 131 205 183 147 172 157 160 195 126 136 84 136 118 89 181 166 152 180 133 161 148 84 50 61 94 267 213 171 266 205 218 266 239 238 234 196
177 171 165 158 157 143 142 142 132 177 170 176 171 165 172 149 133 167 179 165 157 125 163 105 169 159 122 95 79 116 106 30 337 290 222 21 279 243 244 246 222 244 298 231 191
172 163 165 161 148 152 150 142 168 176 188 123 148 149 171 136 56 176 164 179 236 120 125 163 200 163 178 170 157 174 156 153 183 213 223 86 234 244 239 253 245 257 257 161 160
166 159 152 165 146 164 148 164 191 177 158 142 136 156 138 180 131 154 195 191 164 189 143 147 199 68 140 142 153 189 194 153 107 21 54 219 287 297 237 268 267 237 193 195 187
167 161 148 157 151 161 160 172 145 145 123 147 149 191 170 180 146 180 180 202 186 176 152 194 121 56 163 128 70 183 154 124 17 135 258 275 267 237 273 242 237 236 220 196 177
163 141 150 152 160 167 179 180 125 150 137 152 147 150 170 177 161 179 185 224 170 167 88 135 109 187 137 209 157 147 177 72 124 151 172 267 263 220 225 208 208 229 213 192 185
70 106 135 154 152 185 177 147 125 153 126 127 113 114 155 172 115 184 187 193 174 146 141 133 112 142 173 280 298 23 162 156 169 209 213 167 253 225 224 253 207 237 214 200 184
77 93 354 171 159 178 169 206 155 164 160 144 118 132 141 166 169 168 164 207 159 170 162 177 287 92 43 332 4 200 196 145 99 82 201 161 249 344 309 290 269 227 198 191 182
112 115 15 181 33 170 167 185 130 179 122 108 121 114 117 161 336 168 140 164 179 174 131 98 134 167 194 202 135 182 185 188 146 179 198 242 177 337 237 266 282 265 183 193 195
31 85 103 176 160 174 168 177 131 148 155 136 112 152 146 142 136 147 136 100 144 184 132 129 181 174 200 173 166 174 169 176 197 222 191 254 232 204 237 234 243 220 175 184 202
76 122 60 160 128 163 170 200 180 111 142 183 151 161 152 151 179 161 135 140 177 150 193 174 209 123 234 106 109 182 203 202 216 213 240 256 268 175 218 195 274 238 213 224 219
17 353 98 132 151 165 189 184 189 116 13 163 150 135 166 185 168 154 161 120 164 167 181 151 131 102 225 72 83 300 221 214 222 218 228 231 249 200 196 207 222 234 196 214 215